Vorticity
nan nan nan nan nan nan nan nan nan nan nan nan nan nan nan nan nan nan nan nan nan nan nan nan nan nan nan nan nan nan nan nan nan nan nan nan nan nan nan nan nan nan nan nan nan nan nan nan nan nan nan nan nan nan nan nan nan nan nan nan nan nan nan nan nan nan nan nan nan nan nan nan nan nan nan nan nan nan nan nan nan nan nan nan nan nan nan nan nan nan nan nan nan nan nan nan nan nan nan nan nan nan nan
nan 6 6 6 6 5 6 6 6 6 6 6 7 7 7 7 7 7 8 8 8 8 8 8 7 7 7 7 7 7 7 8 8 8 9 9 10 9 8 6 5 6 7 9 11 12 18 22 18 14 12 8 8 7 3 2 8 13 20 19 10 3 -2 -3 2 8 9 5 3 2 -1 1 6 13 16 14 11 11 13 14 13 10 6 5 5 4 8 11 10 9 6 4 4 5 5 6 8 8 7 8 5 5 nan
nan 6 6 6 6 6 6 6 6 6 6 6 7 7 7 6 6 6 7 7 7 8 8 8 8 8 7 7 7 7 7 7 8 8 9 9 9 9 7 6 6 7 8 10 12 12 13 18 19 13 4 4 8 8 6 4 5 8 14 17 16 13 10 7 8 9 8 5 4 3 0 -1 4 12 17 18 15 14 12 12 11 9 7 7 7 5 8 12 13 12 8 4 2 2 2 2 4 4 10 13 8 7 nan
nan 6 6 6 6 6 6 6 6 6 6 6 6 7 6 6 6 6 6 6 6 7 7 7 8 8 8 7 7 7 7 7 7 8 8 9 9 8 7 6 6 7 8 10 13 19 15 11 13 10 1 -0 4 6 6 6 6 7 9 9 10 11 18 20 16 14 8 4 3 3 1 -1 1 7 14 17 18 16 15 16 14 11 9 9 9 7 8 10 12 14 11 8 5 2 -0 1 2 4 10 11 11 10 nan
nan 6 6 6 6 6 6 6 6 6 6 6 6 7 6 6 6 5 5 5 5 5 6 7 7 7 7 7 7 7 7 7 7 7 8 8 8 8 7 7 7 7 8 9 13 21 19 11 11 7 1 0 2 2 3 5 7 7 7 4 -0 2 14 21 19 18 14 8 5 3 1 -2 -3 0 6 12 16 17 17 15 13 12 12 13 13 12 10 10 12 13 13 11 9 6 3 2 2 4 8 10 11 9 nan
nan 6 6 7 7 7 6 6 6 6 6 6 6 7 7 6 6 5 5 5 5 5 5 6 6 7 7 7 7 7 7 6 6 6 7 7 7 8 7 7 6 6 7 8 11 18 21 17 12 7 3 2 3 3 3 5 9 9 6 1 -3 -2 7 16 17 19 17 13 11 8 5 1 -1 -2 1 4 9 13 15 13 11 10 10 12 13 14 13 12 12 12 13 14 13 11 8 6 6 7 6 6 6 6 nan
nan 6 7 7 7 7 7 6 6 6 6 6 6 6 7 6 6 6 6 5 5 4 4 5 5 6 6 6 6 6 6 6 6 6 6 6 6 6 7 7 6 6 6 7 11 18 22 18 11 6 6 5 2 5 4 2 7 11 10 2 -5 -2 5 11 13 17 18 16 15 14 11 6 3 1 0 1 3 6 10 11 9 8 8 8 9 10 11 12 13 14 14 13 13 14 14 12 10 7 6 6 5 3 nan
nan 6 6 7 7 7 6 6 6 6 6 6 6 6 6 6 6 6 6 5 5 5 4 4 4 5 5 6 6 6 6 6 5 5 5 5 5 5 6 6 6 6 6 7 9 14 21 19 12 6 6 6 2 3 5 2 4 8 9 4 -5 -4 3 8 10 14 16 16 17 16 14 10 6 4 3 2 2 2 5 7 8 7 7 7 7 9 9 8 10 12 14 14 14 14 14 14 13 11 9 5 4 4 nan
nan 6 6 6 6 6 6 6 6 6 6 6 6 6 6 7 7 6 6 6 5 5 4 4 4 4 5 5 6 6 6 6 5 5 5 4 4 4 5 5 6 6 6 6 8 11 19 19 11 8 6 5 3 4 8 7 3 6 5 0 -1 -2 2 7 8 10 11 12 13 14 15 13 10 7 6 4 3 2 4 6 5 5 5 6 7 9 8 6 7 9 12 14 14 14 14 14 14 13 10 7 6 5 nan
nan 6 6 6 6 6 6 6 6 6 6 6 6 6 6 6 7 7 6 6 6 5 5 4 4 4 4 5 5 5 5 5 5 5 5 4 4 4 4 5 5 6 6 6 7 9 19 19 9 8 6 3 5 6 9 8 4 7 2 -4 -1 2 5 7 7 7 8 9 10 11 13 13 12 10 8 6 5 4 4 4 4 4 4 4 5 6 8 8 6 6 7 11 13 14 15 14 14 13 11 9 8 7 nan
nan 5 6 6 6 6 6 6 6 6 6 6 5 5 6 6 6 7 7 6 6 6 5 5 5 4 4 4 4 5 5 5 5 5 5 4 4 4 4 5 5 6 6 6 7 9 16 17 9 8 5 2 4 8 9 6 4 9 2 -6 -2 2 6 6 6 7 7 7 8 8 10 11 12 11 9 8 7 5 5 5 5 5 3 3 4 4 6 7 6 6 5 6 9 11 14 15 15 14 13 12 11 10 nan
nan 5 5 5 5 5 5 5 6 6 6 6 5 5 5 6 6 7 7 7 6 6 6 5 5 5 4 4 4 4 5 5 5 5 5 5 4 4 4 5 5 6 7 7 8 10 13 12 8 6 6 4 5 8 9 6 5 7 -2 -8 1 5 6 7 7 7 7 7 7 8 8 10 11 10 9 8 7 7 6 7 6 5 4 3 3 3 4 5 5 6 4 4 5 7 10 13 14 15 15 15 15 14 nan
nan 4 5 5 5 5 5 5 6 6 6 6 5 5 5 6 6 7 7 7 7 6 6 5 5 5 4 4 4 4 4 4 5 5 5 5 5 4 4 5 5 7 8 10 11 12 11 8 5 4 7 7 6 7 8 8 6 2 -7 -7 4 7 7 7 7 7 7 7 7 7 8 8 9 9 9 8 8 7 7 8 8 8 6 5 3 3 3 3 3 3 4 4 4 3 5 7 9 12 14 15 17 18 nan
nan 3 4 5 5 5 5 5 6 6 6 6 5 5 5 5 6 6 7 7 7 6 6 5 5 5 4 5 4 4 3 3 3 4 4 5 5 5 4 4 6 8 11 14 15 12 7 5 6 5 7 7 5 3 8 11 5 -6 -7 -0 5 7 7 7 7 7 7 7 7 7 7 8 8 8 8 8 8 8 8 7 8 10 10 8 6 3 2 3 3 3 3 3 2 3 3 3 5 6 8 11 14 16 nan
nan 3 4 5 5 5 5 5 5 5 6 6 5 5 5 5 6 6 6 7 7 6 6 5 5 4 5 5 5 4 2 1 2 2 3 4 5 5 5 5 7 9 15 17 12 8 5 6 8 6 5 7 7 4 7 9 2 -11 -6 6 7 8 7 7 7 7 7 7 7 7 7 8 8 8 9 9 9 9 8 7 8 10 12 13 11 7 4 4 3 3 3 2 1 2 2 2 3 3 4 7 8 11 nan
nan 3 4 4 5 5 5 5 5 5 5 5 5 4 4 5 5 5 6 6 6 6 6 5 4 4 5 5 7 8 2 -2 -1 -1 0 3 4 5 6 7 10 13 15 14 8 5 6 8 8 6 4 7 8 6 7 5 -3 -11 -3 8 8 8 8 8 8 7 7 7 7 7 7 8 8 8 9 9 9 10 9 8 8 9 13 16 17 14 10 8 6 4 4 2 0 -0 1 4 5 4 4 5 5 6 nan
nan 2 2 3 4 4 5 4 4 4 4 5 4 4 4 4 5 5 5 6 6 6 5 5 4 3 4 6 9 13 7 -2 -3 -5 -5 -1 3 5 6 9 12 16 13 8 6 5 7 9 8 6 4 6 7 6 8 3 -8 -8 1 8 8 8 8 8 8 8 8 7 7 7 8 8 8 9 9 9 10 10 11 10 9 9 11 14 17 20 18 14 11 8 6 4 2 0 0 2 4 6 6 5 5 6 nan
nan 1 1 3 3 4 4 4 4 4 4 4 3 3 2 3 3 4 5 5 5 5 5 4 3 3 4 9 13 16 12 4 1 -4 -8 -6 -0 4 8 10 12 13 10 6 6 7 8 9 8 6 4 5 6 5 6 0 -10 -6 3 8 8 8 8 8 9 8 8 8 8 8 8 8 9 9 9 9 9 10 11 11 11 10 10 11 14 17 20 18 16 14 11 8 5 3 2 3 3 5 5 5 6 7 nan
nan 0 1 1 1 2 2 2 2 2 2 3 3 2 1 1 2 2 3 3 3 4 4 5 3 2 4 10 15 14 11 8 7 5 -1 -5 -3 2 8 11 10 7 6 6 6 8 9 8 7 7 5 5 5 5 4 -2 -8 -3 5 7 7 8 8 9 9 9 8 8 8 8 8 8 9 9 9 9 9 10 10 10 11 10 10 9 10 12 16 18 18 18 17 15 12 9 7 5 5 5 4 4 5 5 nan
nan -2 -2 -2 -1 -0 1 0 -0 -0 -1 2 4 1 -1 -1 0 0 1 2 1 2 4 6 6 2 5 11 12 11 8 7 8 8 6 4 3 4 6 7 7 5 5 6 7 9 9 8 7 7 6 5 5 5 2 -5 -8 -1 6 7 8 8 8 9 9 9 9 9 9 9 8 8 9 9 9 9 9 9 9 9 9 9 9 8 8 8 10 12 15 17 18 18 17 16 13 11 9 7 6 4 3 3 nan
nan 1 -2 -3 -3 -1 -0 -0 -1 -2 -4 1 7 5 -2 -3 -2 -2 1 2 -1 -1 4 9 11 6 4 7 8 9 8 8 7 7 7 8 7 7 6 6 5 5 5 7 8 9 8 8 7 6 7 6 6 5 -2 -7 -6 1 7 8 8 8 9 9 9 9 9 9 9 9 9 8 8 8 8 8 8 7 7 7 7 7 7 7 7 7 7 9 10 12 13 15 16 17 17 15 13 11 9 6 4 3 nan
nan 6 4 3 2 2 3 2 1 0 -5 -0 11 9 3 0 -1 -2 3 5 -1 -2 4 10 11 8 4 5 6 8 9 8 7 7 7 8 8 7 6 6 6 5 6 8 8 8 8 8 7 7 7 7 6 5 -6 -9 -1 4 6 7 8 8 9 9 10 10 10 9 9 9 8 8 8 8 8 7 6 5 5 6 5 5 6 6 6 6 7 7 8 8 8 9 10 12 14 15 15 14 12 10 8 5 nan
nan 8 7 7 6 6 6 6 5 4 -1 1 11 10 7 5 4 4 6 7 3 2 5 8 9 7 5 5 6 8 8 7 7 7 8 7 8 7 6 6 6 6 6 8 8 8 8 8 7 7 7 7 6 4 -7 -11 -1 4 6 7 8 8 9 9 10 10 10 9 9 8 8 7 7 7 6 5 4 4 4 5 5 5 6 6 6 6 6 7 7 7 7 7 7 8 10 13 15 16 15 13 11 9 nan
nan 8 7 7 7 7 7 7 7 6 4 4 9 8 6 6 6 7 8 7 5 5 6 7 8 7 6 6 6 7 7 6 7 8 8 6 7 7 6 6 7 7 6 7 8 8 8 7 7 7 7 7 7 4 -6 -11 -3 3 6 7 8 8 9 9 10 10 9 9 9 8 7 7 7 6 5 3 3 3 4 5 6 7 7 7 7 7 7 7 8 7 8 8 7 7 8 10 12 14 16 16 15 13 nan
nan 8 7 7 7 7 7 6 6 6 6 6 7 6 6 7 7 7 7 7 6 6 5 6 7 7 6 6 7 7 7 6 6 8 8 6 6 6 6 7 8 8 7 7 8 8 7 7 7 7 6 8 7 4 -5 -10 -4 2 5 7 7 8 9 9 9 9 9 8 8 8 7 7 7 6 4 3 2 3 4 6 7 8 8 8 9 8 8 8 8 8 8 8 8 8 8 8 9 11 13 15 15 15 nan
nan 7 7 7 6 6 7 6 6 6 7 8 7 6 6 7 8 7 7 7 7 6 5 5 6 7 6 5 6 8 8 7 6 6 8 8 6 5 6 8 9 8 8 8 8 7 6 7 7 6 7 7 7 5 -4 -9 -4 1 4 6 7 8 8 9 9 9 8 8 7 7 7 7 6 5 3 2 3 3 6 8 9 9 9 9 9 9 9 9 8 8 8 8 8 8 8 8 8 9 10 11 12 14 nan
nan 7 7 7 7 6 7 6 6 6 7 8 8 7 6 7 8 7 7 6 7 6 6 5 6 8 7 6 5 8 9 7 5 5 8 9 7 5 5 7 8 8 9 10 9 7 7 7 7 7 7 7 7 7 -3 -9 -3 0 3 6 7 7 8 8 8 8 7 7 7 7 7 7 6 5 3 3 3 5 6 8 9 10 10 10 10 10 9 9 8 8 7 7 8 8 7 8 8 8 8 9 9 10 nan
nan 7 7 7 7 7 7 6 6 6 7 8 8 7 7 6 7 7 6 6 6 6 6 7 7 7 8 7 5 7 8 6 5 5 8 10 7 4 4 5 7 9 10 10 8 8 7 7 6 7 8 7 7 8 1 -6 -5 -2 2 5 6 7 7 7 8 7 7 7 7 7 7 7 6 5 3 3 4 5 7 9 9 10 10 10 10 9 9 8 7 6 6 7 7 7 7 7 8 8 8 8 8 8 nan
nan 7 8 8 7 7 6 6 6 6 7 8 8 8 7 6 6 6 6 7 7 7 7 7 6 6 6 6 6 7 7 7 5 6 8 9 6 4 4 4 5 7 10 10 8 8 8 7 7 8 8 7 8 8 4 -3 -7 -4 2 5 5 6 7 7 7 7 6 6 7 6 6 6 5 4 3 3 4 5 7 8 9 9 9 9 9 9 8 6 6 5 6 6 6 7 7 8 8 8 8 8 8 7 nan
nan 7 8 8 8 7 6 6 6 7 7 7 7 8 8 8 6 5 5 6 7 7 7 7 7 6 6 6 6 6 6 7 7 6 7 8 6 5 5 5 5 6 9 11 10 8 7 8 8 9 8 8 8 8 6 1 -5 -4 0 4 4 5 6 6 7 7 6 6 6 6 5 5 4 3 2 3 4 6 7 8 8 8 8 8 8 8 7 5 5 5 5 6 7 7 8 8 8 8 8 8 8 8 nan
nan 7 8 8 8 7 6 6 6 7 7 7 7 7 8 9 7 6 5 5 6 7 7 8 7 7 7 7 6 6 6 7 7 5 6 7 6 6 5 5 5 7 9 11 10 8 6 7 8 10 8 7 7 7 8 5 -0 -4 -1 4 4 4 5 6 6 6 6 5 5 5 4 3 2 2 3 4 5 6 7 7 8 7 8 8 7 7 6 5 4 4 5 6 7 8 8 9 9 9 8 8 8 8 nan
nan 8 8 8 7 7 6 6 6 7 8 7 7 8 8 9 8 7 5 5 5 6 7 7 7 7 7 6 6 6 6 7 7 6 6 7 6 6 6 6 6 8 9 9 8 8 8 6 6 8 8 6 8 8 8 7 5 -1 -2 1 3 4 4 6 6 6 5 5 5 5 4 3 2 2 3 4 5 6 7 7 7 7 7 7 7 7 6 5 4 4 5 6 7 8 9 9 9 9 9 8 8 8 nan
nan 8 8 7 7 7 7 6 6 7 8 7 7 8 9 8 8 7 6 5 6 6 7 7 7 7 7 6 6 6 7 7 7 6 7 7 6 6 6 6 7 8 8 8 7 8 8 6 5 6 7 7 8 9 8 8 7 5 1 -2 0 2 4 5 6 6 5 5 5 5 4 2 2 2 3 5 6 7 7 6 6 6 6 6 7 7 6 5 4 5 5 6 7 8 9 9 9 9 9 8 8 8 nan
nan 8 8 7 7 7 7 6 6 7 8 7 7 8 8 9 9 8 7 6 6 7 7 7 8 8 7 6 6 7 8 8 7 6 6 7 7 6 6 6 7 8 8 7 8 9 8 6 6 6 7 8 8 9 10 9 8 8 4 -2 -1 0 3 5 6 6 6 6 6 5 4 3 2 2 4 6 7 7 7 6 6 5 6 6 6 6 6 5 5 5 5 6 7 7 8 9 9 9 8 8 8 8 nan
nan 7 8 7 8 8 7 6 5 6 7 8 8 8 8 9 9 9 7 7 7 8 8 8 8 9 8 7 7 7 8 8 8 7 6 6 7 7 7 7 8 7 7 8 9 9 8 7 6 6 6 7 8 9 10 9 8 8 3 0 3 2 4 6 6 6 6 7 6 5 3 2 2 3 5 7 8 8 7 6 5 5 5 5 6 6 6 6 6 6 6 6 6 7 7 8 8 8 8 8 8 8 nan
nan 8 8 7 8 8 7 6 6 6 7 8 8 8 8 9 9 9 8 7 7 8 8 8 8 8 8 7 7 7 8 9 9 8 7 7 8 7 7 7 8 8 7 8 9 8 7 7 7 6 6 7 9 10 9 8 8 8 6 6 6 6 6 6 6 5 5 6 5 4 2 2 3 4 6 8 8 8 7 6 5 4 4 4 5 6 6 6 6 6 6 6 6 6 6 7 8 8 8 8 9 9 nan
nan 8 8 8 7 7 7 7 7 7 7 8 8 8 8 9 9 8 7 7 7 8 9 7 6 7 9 8 6 7 7 8 8 7 7 8 7 8 7 7 8 8 8 8 8 7 6 7 8 7 7 7 8 9 9 9 7 7 8 8 8 9 9 7 4 3 3 3 4 2 1 2 3 5 7 8 9 8 7 5 4 3 3 4 5 6 6 7 7 7 7 6 5 5 5 6 7 7 8 9 9 9 nan
nan 8 8 8 7 7 7 7 7 7 7 8 8 8 8 9 9 8 7 7 7 8 8 7 6 7 8 7 6 6 7 8 7 6 6 7 7 6 6 7 7 8 8 8 8 7 6 8 8 8 7 7 7 9 10 8 7 7 9 8 9 9 8 7 6 6 3 1 1 1 0 2 3 5 7 8 9 8 7 5 3 3 3 4 4 6 7 7 7 8 7 6 5 5 4 5 6 6 8 8 9 9 nan
nan 7 7 7 7 7 7 7 7 8 8 8 8 8 8 9 9 8 7 7 8 8 8 8 8 8 7 6 6 5 7 9 7 7 6 6 6 6 6 6 7 7 7 8 9 8 7 8 8 7 7 8 8 9 9 7 6 8 9 9 8 8 8 7 7 8 6 2 -0 -2 -1 2 3 5 7 8 8 7 6 4 3 2 3 4 5 6 7 8 8 8 7 6 5 4 4 4 5 6 7 8 8 9 nan
nan 7 7 7 7 7 8 7 7 8 8 8 8 8 8 8 8 8 8 8 8 8 8 7 7 7 7 7 7 7 7 8 7 7 6 6 6 6 6 6 8 8 7 7 8 9 8 7 7 7 8 9 9 9 7 6 7 9 10 9 8 7 6 6 6 8 8 6 3 -2 -3 1 3 5 7 7 7 7 6 4 3 3 3 4 5 6 8 8 8 8 7 7 6 4 4 4 4 5 6 7 7 8 nan
nan 7 7 7 7 8 8 7 8 8 8 8 8 8 7 7 7 8 8 9 9 9 7 6 6 6 7 7 7 7 7 7 7 6 6 7 7 7 7 7 8 7 7 7 9 9 8 7 8 8 9 9 9 8 6 6 8 10 10 8 7 6 5 5 7 9 8 7 6 2 -2 -2 2 5 6 7 7 7 6 5 4 4 4 5 6 7 8 8 8 8 7 6 6 4 3 3 4 4 5 6 7 7 nan
nan 7 7 7 8 8 8 8 8 8 8 8 8 8 8 8 8 8 8 8 9 9 8 7 7 6 7 7 6 6 7 7 7 6 6 7 8 8 7 7 8 7 7 8 9 9 8 8 8 8 8 9 8 6 6 8 9 10 9 7 7 6 6 7 9 9 7 7 7 7 1 -2 2 4 6 6 7 7 7 6 5 5 5 5 6 7 7 8 7 7 7 6 5 4 3 3 3 4 5 6 6 7 nan
nan 8 7 7 8 8 8 8 8 8 8 8 8 8 8 8 8 9 8 7 7 9 9 8 7 7 7 6 6 6 7 7 8 7 6 7 8 7 7 8 8 8 8 9 9 8 9 8 7 6 8 9 7 6 8 10 10 10 9 8 7 7 6 8 9 7 6 7 8 8 5 2 1 4 7 8 8 8 7 6 5 5 5 6 6 6 7 7 7 7 6 6 5 4 3 3 4 4 5 6 6 6 nan
nan 8 8 8 8 8 8 8 8 8 8 8 8 8 8 8 8 9 8 7 7 8 9 9 8 7 7 6 6 6 6 7 8 7 7 7 7 7 8 9 9 8 8 8 9 9 9 7 6 7 10 9 7 8 9 9 10 10 10 8 7 6 6 7 7 6 6 8 9 8 7 5 4 5 8 10 10 10 8 6 5 5 5 6 6 6 6 6 6 6 6 5 5 4 4 4 4 4 5 5 6 6 nan
nan 8 8 8 8 8 8 9 8 9 8 8 8 7 7 8 8 8 9 8 8 8 9 9 8 9 7 6 6 7 7 7 7 7 6 7 7 7 9 9 9 8 8 8 8 9 8 7 8 10 10 9 8 8 8 7 8 9 9 7 6 5 5 6 6 7 8 10 10 7 6 7 8 8 9 10 11 10 7 4 4 4 5 6 6 6 6 6 6 6 6 6 5 4 4 4 4 4 5 5 6 6 nan
nan 7 7 8 8 8 9 9 9 9 8 8 7 7 7 8 8 8 8 8 8 8 8 8 9 9 9 8 7 7 7 8 7 7 7 8 8 7 8 9 9 8 7 8 8 8 7 9 11 11 9 8 8 8 6 6 8 8 8 7 7 5 5 5 6 7 10 11 9 6 6 7 8 9 10 10 10 8 4 2 3 4 5 6 6 6 6 6 6 7 7 6 5 5 5 4 4 4 5 5 5 5 nan
nan 7 8 8 8 8 9 9 9 9 8 7 6 6 7 8 8 7 7 8 8 8 7 8 8 9 9 10 9 8 8 7 7 7 9 9 8 7 8 11 10 9 9 8 7 6 6 10 11 10 9 9 9 9 7 7 7 7 6 7 7 5 4 6 7 8 10 10 7 6 6 7 8 9 9 8 8 7 5 4 4 5 6 6 7 7 7 7 7 8 8 7 6 6 5 4 4 4 4 5 5 5 nan
nan 7 8 9 8 8 8 9 9 9 8 7 6 7 7 8 8 8 7 7 8 8 8 8 8 9 9 10 10 9 9 7 7 8 10 10 11 11 11 11 10 10 10 9 7 6 8 11 11 10 9 9 8 8 7 6 6 6 6 7 7 6 5 7 8 9 10 7 5 5 6 7 7 8 8 8 8 8 7 7 6 7 8 8 8 8 8 9 9 9 8 7 6 6 5 5 4 4 4 5 5 5 nan
nan 6 7 8 8 8 7 8 9 8 8 8 8 9 9 8 8 8 9 8 8 8 9 9 9 8 9 9 9 8 8 7 8 10 10 10 12 13 12 11 9 9 10 10 9 9 13 13 12 10 9 7 7 6 6 6 6 7 7 8 8 7 7 8 9 10 9 6 5 5 6 7 7 8 8 8 8 8 7 7 8 8 8 8 10 11 13 11 10 8 7 6 5 5 5 5 5 5 5 5 5 6 nan
nan 6 6 7 7 7 8 8 8 8 8 9 10 11 10 9 9 8 8 8 9 9 10 9 8 8 8 8 9 8 7 7 9 9 8 7 8 9 9 11 11 11 11 11 11 11 14 13 11 9 7 5 4 4 5 6 7 8 8 9 8 8 9 9 10 9 7 6 6 6 6 7 7 8 8 7 7 7 7 7 7 8 8 10 13 16 15 13 11 8 5 3 4 4 5 6 5 5 5 6 6 6 nan
nan 7 7 6 7 7 8 9 8 8 8 8 8 9 9 9 9 8 7 7 8 9 9 8 8 8 8 8 8 8 7 7 8 7 6 6 8 9 9 10 11 12 11 10 11 11 11 10 9 8 6 4 3 5 7 9 9 9 9 8 8 8 8 9 9 9 7 7 7 6 7 7 8 8 7 6 6 5 6 7 7 8 9 11 12 13 11 9 4 3 2 2 3 5 6 6 7 7 6 6 7 7 nan
nan 6 7 7 7 8 9 9 8 8 7 6 5 6 8 8 8 8 8 8 8 8 7 8 8 8 8 9 8 8 8 9 9 7 8 8 10 12 11 9 9 8 9 11 12 10 7 8 9 8 6 4 6 8 10 10 10 9 9 8 8 8 8 8 9 8 7 7 8 8 8 9 9 7 5 5 5 5 6 6 7 8 8 7 7 7 6 3 -0 -2 -1 3 4 6 7 8 8 7 7 7 7 7 nan
nan 6 6 6 7 8 8 8 8 8 7 7 6 6 6 6 7 7 8 8 8 8 8 9 8 8 7 9 9 9 9 11 9 8 7 9 9 9 8 7 7 7 8 11 12 10 7 7 7 6 6 8 11 12 12 10 10 10 10 9 9 9 9 9 8 8 8 8 8 8 9 9 8 7 6 6 6 7 7 7 7 7 7 6 7 8 7 2 -2 -1 6 8 8 9 9 8 7 7 7 7 7 7 nan
nan 7 6 5 7 7 8 8 8 8 7 8 8 7 7 6 6 7 8 8 8 8 9 9 9 7 7 8 9 8 9 9 9 9 9 9 7 6 8 9 9 9 10 9 7 9 7 5 4 7 10 15 15 14 12 11 10 10 10 8 8 9 9 8 8 9 8 8 8 8 8 8 7 6 6 8 9 9 8 7 6 6 6 6 7 6 3 -1 1 9 15 14 12 10 9 6 6 6 6 6 7 6 nan
nan 7 6 6 6 8 8 9 8 7 7 7 8 9 8 7 8 9 9 9 9 8 8 7 7 6 7 7 7 6 7 8 9 9 10 8 7 7 8 8 9 10 10 8 6 5 3 3 8 13 14 14 14 12 11 12 10 9 8 8 8 7 6 7 8 9 8 9 8 8 8 8 8 7 7 9 9 8 6 7 7 7 7 7 6 5 3 4 11 18 18 14 11 10 7 5 5 5 5 6 6 6 nan
nan 7 6 7 8 7 8 8 8 8 7 7 8 9 9 9 10 10 9 10 9 7 6 7 7 5 6 8 8 6 7 9 9 9 9 8 8 8 8 6 7 7 8 7 7 6 3 5 12 17 14 10 6 7 9 10 9 8 8 9 8 7 6 8 8 8 8 8 8 8 8 8 7 8 9 9 8 7 7 8 9 9 9 8 8 9 10 12 14 13 12 11 12 11 6 5 4 4 5 6 6 6 nan
nan 8 7 8 8 6 6 7 7 7 7 7 8 8 9 9 9 8 8 8 8 7 7 8 9 7 6 8 9 8 6 6 7 9 9 8 8 8 8 7 6 5 4 5 6 6 5 7 10 12 10 7 6 7 9 9 9 9 10 9 10 10 10 9 8 8 7 7 7 7 7 7 8 8 9 8 8 8 9 9 9 9 8 8 9 9 9 8 7 6 8 7 7 4 0 2 3 4 5 6 6 6 nan
nan 8 9 8 8 7 5 6 7 7 7 7 7 8 8 7 7 7 8 8 9 10 9 7 8 9 8 7 8 8 6 5 5 7 9 10 10 10 8 7 8 7 5 4 5 4 5 8 10 6 6 7 11 10 9 7 10 11 11 11 12 12 12 10 8 7 6 5 6 6 7 8 8 8 9 9 9 10 10 9 9 8 8 9 9 9 6 4 4 4 0 -3 -6 -7 -3 2 4 5 5 6 6 7 nan
nan 8 8 8 8 8 6 6 7 7 8 7 7 7 7 7 7 8 9 9 11 11 8 6 8 10 10 7 6 6 7 7 7 6 8 9 11 11 10 8 8 9 9 8 8 7 7 6 6 6 6 6 8 10 8 6 7 9 10 12 12 11 10 9 8 6 6 6 6 6 7 8 9 9 9 9 10 10 10 10 9 9 9 10 10 8 5 6 7 5 0 -1 -2 -2 1 4 5 6 6 7 7 7 nan
nan 6 7 9 9 8 7 6 7 7 8 7 7 7 7 8 8 8 8 9 11 11 9 8 8 9 10 9 6 5 7 10 10 8 7 8 9 10 10 9 9 10 10 8 9 10 8 5 3 4 5 5 4 5 6 9 8 8 8 9 9 9 7 7 7 7 8 9 9 9 8 8 9 9 8 8 8 8 10 10 9 9 9 8 8 7 7 10 10 11 12 13 10 6 5 5 5 6 6 7 7 7 nan
nan nan nan nan nan nan nan nan nan nan nan nan nan nan nan nan nan nan nan nan nan nan nan nan nan nan nan nan nan nan nan nan nan nan nan nan nan nan nan nan nan nan nan nan nan nan nan nan nan nan nan nan nan nan nan nan nan nan nan nan nan nan nan nan nan nan nan nan nan nan nan nan nan nan nan nan nan nan nan nan nan nan nan nan nan nan nan nan nan nan nan nan nan nan nan nan nan nan nan nan nan nan nan
CAPE
14 14 13 13 13 13 13 14 14 14 14 12 10 10 8 6 6 9 10 12 12 14 14 14 9 9 8 10 13 13 14 14 15 15 19 24 24 30 33 39 39 33 23 14 4 4 nan nan nan nan 1 2 nan nan nan nan nan 1 1 1 1 nan 0 248 426 426 373 430 539 539 661 735 846 846 910 957 957 1001 890 746 746 960 1087 1012 931 931 901 1128 1251 1251 1150 1080 1086 1086 864 852 852 938 925 865 865 897 891
11 11 10 10 10 10 10 12 12 12 13 10 9 9 7 4 4 6 8 8 8 9 10 9 7 7 5 7 10 10 11 12 14 14 19 24 24 30 33 33 33 24 16 9 0 0 nan nan nan nan 11 0 nan nan nan nan nan nan 0 5 5 1 1 239 376 376 366 488 599 599 684 849 922 922 996 989 989 979 923 856 856 898 1029 1008 982 982 995 1059 1165 1165 1217 1102 862 862 671 624 624 742 1001 1030 1030 1012 958
9 8 7 7 6 6 8 9 10 10 10 10 7 7 6 6 6 6 5 4 4 5 5 5 4 4 4 4 6 6 8 9 13 13 15 20 20 25 28 27 27 18 12 4 nan nan nan nan nan nan 15 nan nan nan nan nan nan nan nan 8 8 12 32 183 241 241 336 515 673 673 752 839 972 972 1044 985 985 971 1008 988 988 886 872 1003 1026 1026 1147 1056 1087 1087 1225 1072 748 748 496 457 457 531 896 1111 1111 1134 1027
6 6 6 5 4 4 5 6 8 8 8 8 7 7 5 5 5 6 5 2 2 2 2 2 2 2 2 3 4 4 6 6 8 8 9 14 14 19 23 18 18 12 5 1 nan nan nan nan 5 5 18 nan nan nan nan nan nan nan nan 1 1 15 58 130 143 143 257 458 580 580 660 797 753 753 779 883 883 1012 904 937 937 892 854 992 980 980 1053 1121 1032 1032 963 953 895 895 666 439 439 427 763 1153 1153 1222 1149
4 5 4 3 2 2 3 5 5 5 5 5 5 5 4 4 4 5 4 1 1 0 0 0 1 1 1 1 3 3 5 5 5 5 5 7 7 9 11 10 10 6 2 nan nan nan nan nan nan nan 7 nan nan nan nan nan nan nan nan nan nan 7 29 66 91 91 206 360 492 492 533 620 587 587 574 628 628 779 906 881 881 846 820 934 980 980 1006 1078 1090 1090 1001 934 921 921 817 616 616 544 656 1051 1051 1146 1144
0 1 1 1 1 1 2 3 4 4 3 3 3 3 3 3 3 2 2 1 1 0 nan nan 0 0 0 0 2 2 3 3 2 2 2 2 2 2 2 3 3 1 0 nan nan nan nan nan nan nan nan nan nan nan nan nan nan nan nan nan nan 7 11 17 67 67 149 258 336 336 439 445 468 468 402 393 393 498 799 792 792 793 824 902 925 925 952 1033 1094 1094 1099 1016 950 950 980 902 902 763 712 1018 1018 1099 1086
nan nan nan nan nan nan nan 1 2 2 1 1 1 1 1 1 1 1 1 0 0 nan nan nan nan nan nan nan 0 0 1 1 0 0 0 nan nan nan nan nan nan nan nan nan nan nan nan nan nan nan nan nan nan nan nan nan nan nan nan nan nan 8 10 7 13 13 124 212 275 275 314 392 400 400 302 275 275 298 478 737 737 826 778 765 795 795 864 983 1049 1049 1054 1060 1074 1074 964 1018 1018 1150 1038 1030 1030 1072 1062
nan nan nan nan nan nan nan nan nan nan nan nan nan nan nan nan nan nan 0 nan nan nan nan nan nan nan nan nan nan nan nan nan nan nan nan nan nan nan nan nan nan nan nan nan nan nan nan nan nan nan nan nan nan nan nan nan nan nan nan nan nan 1 5 4 6 6 24 89 163 163 227 264 277 277 213 141 141 181 262 493 493 598 646 680 747 747 815 882 908 908 966 1063 1070 1070 998 1039 1039 1176 1207 1143 1143 1183 1130
nan nan nan nan nan nan nan nan nan nan nan nan nan nan nan nan nan nan nan nan nan nan nan nan nan nan nan nan nan nan nan nan nan nan nan nan nan nan nan nan nan nan nan nan nan nan nan nan nan nan nan nan nan nan nan nan nan nan nan nan nan nan 1 1 3 3 7 16 43 43 122 171 164 164 123 74 74 96 150 302 302 421 528 527 628 628 721 743 810 810 877 978 1030 1030 1040 1024 1024 1104 1279 1211 1211 1203 1089
nan nan nan nan nan nan nan nan nan nan nan nan nan nan nan nan nan nan nan nan nan nan nan nan nan nan nan nan nan nan nan nan nan nan nan nan nan nan nan nan nan nan nan nan nan nan nan nan nan nan nan nan nan nan nan nan nan nan nan nan nan nan 0 1 2 2 3 3 12 12 33 95 91 91 65 33 33 35 70 180 180 292 337 364 450 450 642 690 718 718 784 938 996 996 1048 1065 1065 1089 1112 1186 1186 1074 841
nan nan nan nan nan nan nan nan nan nan nan nan nan nan nan nan nan nan nan nan nan nan nan nan nan nan nan nan nan nan nan nan nan nan nan nan nan nan nan nan nan nan nan nan nan nan nan nan nan nan nan nan nan nan nan nan nan nan nan nan nan 0 1 0 2 2 3 3 6 6 13 20 37 37 34 23 23 19 37 67 67 148 229 247 290 290 429 613 665 665 696 764 915 915 1062 1116 1116 1083 1056 1124 1124 1054 784
nan nan nan nan nan nan nan nan nan nan nan nan nan nan nan nan nan nan nan nan nan nan nan nan nan nan nan nan nan nan nan nan nan nan nan nan nan nan nan nan nan nan nan nan nan nan nan nan nan nan nan nan nan nan nan nan nan nan nan nan nan nan 0 0 1 1 4 4 6 6 10 15 19 19 16 14 14 11 14 19 19 70 137 169 201 201 269 441 591 591 648 638 786 786 892 991 991 1044 1098 1114 1114 1084 850
nan nan nan nan nan nan nan nan nan nan nan nan nan nan nan nan nan nan nan nan nan nan nan nan nan nan nan nan nan nan nan nan nan nan nan nan nan nan nan nan nan nan nan nan nan nan nan nan nan nan nan nan nan nan nan nan nan nan nan nan nan nan nan 0 1 1 4 6 8 8 8 8 15 15 13 10 10 8 10 14 14 27 89 153 177 177 208 281 462 462 652 633 586 586 684 784 784 924 965 1108 1108 1121 1014
nan nan nan nan nan nan nan nan nan nan nan nan nan nan nan nan nan nan nan nan nan nan nan nan nan nan nan nan nan nan nan nan nan nan nan nan nan nan nan nan nan nan nan nan nan nan nan nan nan nan nan nan nan nan nan nan nan nan nan nan nan nan nan nan 1 1 4 7 9 9 7 4 7 7 13 10 10 5 2 5 5 16 56 146 185 185 190 220 299 299 489 636 655 655 571 590 590 645 644 845 845 980 1048
nan nan nan nan nan nan nan nan nan nan nan nan nan nan nan nan nan nan nan nan nan nan nan nan nan nan nan nan nan nan nan nan nan nan nan nan nan nan nan nan nan nan nan nan nan nan nan nan nan nan nan nan nan nan nan nan nan nan nan nan nan nan nan nan 0 0 2 5 8 8 7 4 1 1 4 11 11 8 0 0 0 8 25 121 219 219 248 231 236 236 319 506 618 618 598 518 518 439 424 548 548 732 912
nan nan nan nan nan nan nan nan nan nan nan nan nan nan nan nan nan nan nan nan nan nan nan nan nan nan nan nan nan nan nan nan nan nan nan nan nan nan nan nan nan nan nan nan nan nan nan nan nan nan nan nan nan nan nan nan nan nan nan nan nan nan nan nan nan nan 2 4 6 6 5 2 0 0 0 2 2 9 2 nan nan 0 13 82 189 189 262 266 247 247 226 337 456 456 567 619 619 539 427 374 374 463 632
nan nan nan nan nan nan nan nan nan nan nan nan nan nan nan nan nan nan nan nan nan nan nan nan nan nan nan nan nan nan nan nan nan nan nan nan nan nan nan nan nan nan nan nan nan nan nan nan nan nan nan nan nan nan nan nan nan nan nan nan nan nan nan nan 0 0 2 3 4 4 5 2 0 0 nan nan nan 0 1 nan nan nan 3 39 152 152 278 330 275 275 260 272 357 357 478 561 561 573 586 440 440 411 418
nan nan nan nan nan nan nan nan nan nan nan nan nan nan nan nan nan nan nan nan nan nan nan nan nan nan nan nan nan nan nan nan nan nan nan nan nan nan nan nan nan nan nan nan nan nan nan nan nan nan nan nan nan nan nan nan nan nan nan nan nan nan nan nan 0 0 2 3 4 4 4 2 0 0 nan nan nan nan 0 0 0 nan nan 22 80 80 248 317 343 343 318 310 359 359 387 475 475 586 695 564 564 485 425
nan nan nan nan nan nan nan nan nan nan nan nan nan nan nan nan nan nan nan nan nan nan nan nan nan nan nan nan nan nan nan nan nan nan nan nan nan nan nan nan nan nan nan nan nan nan nan nan nan nan nan nan nan nan nan nan nan nan nan nan nan nan nan nan 0 0 2 3 4 4 3 3 2 2 0 nan nan nan 1 4 4 nan nan 16 26 26 80 217 336 336 368 387 405 405 427 447 447 464 570 643 643 619 532
nan nan nan nan nan nan nan nan nan nan nan nan nan nan nan nan nan nan nan nan nan nan nan nan nan nan nan nan nan nan nan nan nan nan nan nan nan nan nan nan nan nan nan nan nan nan nan nan nan nan nan nan nan nan nan nan nan nan nan nan nan nan nan nan nan nan 0 2 3 3 3 3 4 4 5 5 5 5 5 5 5 6 6 10 15 15 9 11 16 16 58 129 279 279 424 434 434 447 424 465 465 445 459
nan nan nan nan nan nan nan nan nan nan nan nan nan nan nan nan nan nan nan nan nan nan nan nan nan nan nan nan nan nan nan nan nan nan nan nan nan nan nan nan nan nan nan nan nan nan nan nan nan nan nan nan nan nan nan nan nan nan nan nan nan nan nan nan nan nan 0 2 3 3 3 3 6 6 8 9 9 7 4 2 2 2 1 2 5 5 3 3 8 8 12 13 41 41 196 365 365 426 406 384 384 392 375
nan nan nan nan nan nan nan nan nan nan nan nan nan nan nan nan nan nan nan nan nan nan nan nan nan nan nan nan nan nan nan nan nan nan nan nan nan nan nan nan nan nan nan nan nan nan nan nan nan nan nan nan nan nan nan nan nan nan nan nan nan nan nan nan 0 0 1 3 3 3 3 4 7 7 10 8 8 4 1 nan nan nan nan nan nan nan nan nan 4 4 7 5 7 7 22 136 136 331 418 395 395 374 327
nan nan nan nan nan nan nan nan nan nan nan nan nan nan nan nan nan nan nan nan nan nan nan nan nan nan nan nan nan nan nan nan nan nan nan nan nan nan nan nan nan nan nan nan nan nan nan nan nan nan nan nan nan nan nan nan nan nan nan nan nan nan nan nan 1 1 3 4 5 5 5 6 8 8 10 7 7 1 nan nan nan nan nan nan nan nan nan nan 2 2 4 1 1 1 6 22 22 140 381 407 407 381 332
nan nan nan nan nan nan nan nan nan nan nan nan nan nan nan nan nan nan nan nan nan nan nan nan nan nan nan nan nan nan nan nan nan nan nan nan nan nan nan nan nan nan nan nan nan nan nan nan nan nan nan nan nan nan nan nan nan nan nan nan nan nan nan nan 1 1 3 7 8 8 8 10 12 12 9 4 4 0 nan nan nan nan nan nan nan nan nan nan nan nan 3 1 nan nan 0 12 12 29 136 340 340 425 370
nan nan nan nan nan nan nan nan nan nan nan nan nan nan nan nan nan nan nan nan nan nan nan nan nan nan nan nan nan nan nan nan nan nan nan nan nan nan nan nan nan nan nan nan nan nan nan nan nan nan nan nan nan nan nan nan nan nan nan nan nan nan nan nan 0 0 4 8 11 11 11 13 15 15 9 2 2 nan nan nan nan nan nan nan nan nan nan nan nan nan nan 1 nan nan nan 3 3 20 37 102 102 202 334
nan nan nan nan nan nan nan nan nan nan nan nan nan nan nan nan nan nan nan nan nan nan nan nan nan nan nan nan nan nan nan nan nan nan nan nan nan nan nan nan nan nan nan nan nan nan nan nan nan nan nan nan nan nan nan nan nan nan nan nan nan nan nan nan nan nan 2 7 10 10 14 16 15 15 8 1 1 nan nan nan nan nan nan nan nan nan nan nan nan nan nan nan nan nan nan nan nan 6 25 37 37 46 101
nan nan nan nan nan nan nan nan nan nan nan nan nan nan nan nan nan nan nan nan nan nan nan nan nan nan nan nan nan nan nan nan nan nan nan nan nan nan nan nan nan nan nan nan nan nan nan nan nan nan nan nan nan nan nan nan nan nan nan nan nan nan nan nan nan nan 0 3 8 8 12 17 12 12 5 0 0 nan nan nan nan nan nan nan nan nan nan nan nan nan nan nan nan nan nan nan nan nan 10 24 24 24 24
nan nan nan nan nan nan nan nan nan nan nan nan nan nan nan nan nan nan nan nan nan nan nan nan nan nan nan nan nan nan nan nan nan nan nan nan nan nan nan nan nan nan nan nan nan nan nan nan nan nan nan nan nan nan nan nan nan nan nan nan nan nan nan nan nan nan nan 0 3 3 7 11 8 8 2 nan nan nan nan nan nan nan 0 1 1 1 1 0 nan nan nan nan nan nan nan nan nan nan 1 6 6 13 18
nan nan nan nan nan nan nan nan nan nan nan nan nan nan nan nan nan nan nan nan nan nan nan nan nan nan nan nan nan nan nan nan nan nan nan nan nan nan nan nan nan nan nan nan nan nan nan nan nan nan nan nan nan nan nan nan nan nan nan nan nan nan nan nan nan nan nan nan 0 0 3 5 3 3 0 nan nan nan nan nan nan 0 2 4 5 5 5 2 nan nan nan nan nan nan nan nan nan nan nan nan nan 1 6
nan nan nan nan nan nan nan nan nan nan nan nan nan nan nan nan nan nan nan nan nan nan nan nan nan nan nan nan nan nan nan nan nan nan nan nan nan nan nan nan nan nan nan nan nan nan nan nan nan nan nan nan nan nan nan nan nan nan nan nan nan nan nan nan nan nan nan nan nan nan 0 1 0 0 nan nan nan nan nan nan nan 0 2 5 10 10 10 4 0 0 nan nan nan nan nan nan nan nan nan nan nan nan nan
nan nan nan nan nan nan nan nan nan nan nan nan nan nan nan nan nan nan nan nan nan nan nan nan nan nan nan nan nan nan nan nan nan nan nan nan nan nan nan nan nan nan nan nan nan nan nan nan nan nan nan nan nan nan nan nan nan nan nan nan nan nan nan nan nan nan nan nan nan nan nan nan nan nan nan nan nan nan nan nan nan nan 1 5 12 12 10 5 1 1 nan nan nan nan nan nan nan nan nan nan nan nan nan
nan nan nan nan nan nan nan nan nan nan nan nan nan nan nan nan nan nan nan nan nan nan nan nan nan nan nan nan nan nan nan nan nan nan nan nan nan nan nan nan nan nan nan nan nan nan nan nan nan nan nan nan nan nan nan nan nan nan nan nan nan nan nan nan nan nan nan nan nan nan nan nan nan nan nan nan nan nan nan nan nan nan 0 4 9 9 9 5 1 1 nan nan nan nan nan nan nan nan nan nan nan nan nan
nan nan nan nan nan nan nan nan nan nan nan nan nan nan nan nan nan nan nan nan nan nan nan nan nan nan nan nan nan nan nan nan nan nan nan nan nan nan nan nan nan nan nan nan nan nan nan nan nan nan nan nan nan nan nan nan nan nan nan nan nan nan nan nan nan nan nan nan nan nan nan nan nan nan nan nan nan nan nan nan nan nan nan 1 4 4 6 4 1 1 nan nan nan nan nan nan nan nan nan nan nan nan nan
nan nan nan nan nan nan nan nan nan nan nan nan nan nan nan nan nan nan nan nan nan nan nan nan nan nan nan nan nan nan nan nan nan nan nan nan nan nan nan nan nan nan nan nan nan nan nan nan nan nan nan nan nan nan nan nan nan nan nan nan nan nan nan nan nan nan nan nan nan nan nan nan nan nan nan nan nan nan nan nan nan nan nan nan 0 0 1 1 0 0 0 nan 0 0 0 0 0 0 nan nan nan nan nan
nan nan nan nan nan nan nan nan nan nan nan nan nan nan nan nan nan nan nan nan nan nan nan nan nan nan nan nan nan nan nan nan nan nan nan nan nan nan nan nan nan nan nan nan nan nan nan nan nan nan nan nan nan nan nan nan nan nan nan nan nan nan nan nan nan nan nan nan nan nan nan nan nan nan nan nan nan nan nan nan nan nan nan nan nan nan nan nan 0 0 0 0 0 0 1 1 1 1 1 0 0 nan nan
nan nan nan nan nan nan nan nan nan nan nan nan nan nan nan nan nan nan nan nan nan nan nan nan nan nan nan nan nan nan nan nan nan nan nan nan nan nan nan nan nan nan nan nan nan nan nan nan nan nan nan nan nan nan nan nan nan nan nan nan nan nan nan nan nan nan nan nan nan nan nan nan nan nan nan nan nan nan nan nan nan nan nan nan nan nan nan nan nan nan 0 1 0 0 0 0 0 1 2 2 2 0 nan
nan nan nan nan nan nan nan nan nan nan nan nan nan nan nan nan nan nan nan nan nan nan nan nan nan nan nan nan nan nan nan nan nan nan nan nan nan nan nan nan nan nan nan nan nan nan nan nan nan nan nan nan nan nan nan nan nan nan nan nan nan nan nan nan nan nan nan nan nan nan nan nan nan nan nan nan nan nan nan nan nan nan nan nan nan nan nan nan nan nan nan 1 1 1 0 0 0 0 1 2 2 2 0
nan nan nan nan nan nan nan nan nan nan nan nan nan nan nan nan nan nan nan nan nan nan nan nan nan nan nan nan nan nan nan nan nan nan nan nan nan nan nan nan nan nan nan nan nan nan nan nan nan nan nan nan nan nan nan nan nan nan nan nan nan nan nan nan nan nan nan nan nan nan nan nan nan nan nan nan nan nan nan nan nan nan nan nan nan nan nan nan nan nan nan 1 1 1 0 nan nan nan 0 2 2 3 4
nan nan nan nan nan nan nan nan nan nan nan nan nan nan nan nan nan nan nan nan nan nan nan nan nan nan nan nan nan nan nan nan nan nan nan nan nan nan nan nan nan nan nan nan nan nan nan nan nan nan nan nan nan nan nan nan nan nan nan nan nan nan nan nan nan nan nan nan nan nan nan nan nan nan nan nan nan nan nan nan nan nan nan nan nan nan nan nan nan nan nan 0 1 1 0 nan nan nan nan 1 1 5 9
nan nan nan nan nan nan nan nan nan nan nan nan nan nan nan nan nan nan nan nan nan nan nan nan nan nan nan nan nan nan nan nan nan nan nan nan nan nan nan nan nan nan nan nan nan nan nan nan nan nan nan nan nan nan nan nan nan nan nan nan nan nan nan nan nan nan nan nan nan nan nan nan nan nan nan nan nan nan nan nan nan nan nan nan nan nan nan nan nan nan nan 0 1 1 0 nan nan nan nan 0 0 4 10
nan nan nan nan nan nan nan nan nan nan nan nan nan nan nan nan nan nan nan nan nan nan nan nan nan nan nan nan nan nan nan nan nan nan nan nan nan nan nan nan nan nan nan nan nan nan nan nan nan nan nan nan nan nan nan nan nan nan nan nan nan nan nan nan nan nan nan nan nan nan nan nan nan nan nan nan nan nan nan nan nan nan nan nan nan nan nan nan nan nan nan nan nan nan nan nan nan nan nan nan nan 2 8
nan nan nan nan nan nan nan nan nan nan nan nan nan nan nan nan nan nan nan nan nan nan nan nan nan nan nan nan nan nan nan nan nan nan nan nan nan nan nan nan nan nan nan nan nan nan nan nan nan nan nan nan nan nan nan nan nan nan nan nan nan nan nan nan nan nan nan nan nan nan nan nan nan nan nan nan nan nan nan nan nan nan nan nan nan nan nan nan nan nan nan nan nan nan nan nan nan nan nan nan nan 1 5
nan nan nan nan nan nan nan nan nan nan nan nan nan nan nan nan nan nan nan nan nan nan nan nan nan nan nan nan nan nan nan nan nan nan nan nan nan nan nan nan nan nan nan nan nan nan nan nan nan nan nan nan nan nan nan nan nan nan nan nan nan nan nan nan nan nan nan nan nan nan nan nan nan nan nan nan nan nan nan nan nan nan nan nan nan nan nan nan nan nan nan nan nan nan nan nan nan nan nan nan nan 0 1
nan nan nan nan nan nan nan nan nan nan nan nan nan nan nan nan nan nan nan nan nan nan nan nan nan nan nan nan nan nan nan nan nan nan nan nan nan nan nan nan nan nan nan nan nan nan nan nan nan nan nan nan nan nan nan nan nan nan nan nan nan nan nan nan nan nan nan nan nan nan nan nan nan nan nan nan nan nan nan nan nan nan nan nan nan nan nan nan nan nan nan nan nan nan nan nan nan nan nan nan nan nan 0
nan nan nan nan nan nan nan nan nan nan nan nan nan nan nan nan nan nan nan nan nan nan nan nan nan nan nan nan nan nan nan nan nan nan nan nan nan nan nan nan nan nan nan nan nan nan nan nan nan nan nan nan nan nan nan nan nan nan nan nan nan nan nan nan nan nan nan nan nan nan nan nan nan nan nan nan nan nan nan nan nan nan nan nan nan nan nan nan nan nan nan nan nan nan nan nan nan nan nan nan nan 0 0
nan nan nan nan nan nan nan nan nan nan nan nan nan nan nan nan nan nan nan nan nan nan nan nan nan nan nan nan nan nan nan nan nan nan nan nan nan nan nan nan nan nan nan nan nan nan nan nan nan nan nan nan nan nan nan nan nan nan nan nan nan nan nan nan nan nan nan nan nan nan nan nan nan nan nan nan nan nan nan nan nan nan nan nan nan nan nan nan nan nan nan nan nan nan nan nan nan nan nan nan nan nan 0
nan nan nan nan nan nan nan nan nan nan nan nan nan nan nan nan nan nan nan nan nan nan nan nan nan nan nan nan nan nan nan nan nan nan nan nan nan nan nan nan nan nan nan nan nan nan nan nan nan nan nan nan nan nan nan nan nan nan nan nan nan nan nan nan nan nan nan nan nan nan nan nan nan nan nan nan nan nan nan nan nan nan nan nan nan nan nan nan nan nan nan nan nan nan nan nan nan nan nan nan nan nan 0
nan nan nan nan nan nan nan nan nan nan nan nan nan nan nan nan nan nan nan nan nan nan nan nan nan nan nan nan nan nan nan nan nan nan nan nan nan nan nan nan nan nan nan nan nan nan nan nan nan nan nan nan nan nan nan nan nan nan nan nan nan nan nan nan nan nan nan nan nan nan nan nan nan nan nan nan nan nan nan nan nan nan nan nan nan nan nan nan nan nan nan nan nan nan nan nan nan nan nan nan nan nan nan
nan nan nan nan nan nan nan nan nan nan nan nan nan nan nan nan nan nan nan nan nan nan nan nan nan nan nan nan nan nan nan nan nan nan nan nan nan nan nan nan nan nan nan nan nan nan nan nan nan nan nan nan nan nan nan nan nan nan nan nan nan nan nan nan nan nan nan nan nan nan nan nan nan nan nan nan nan nan nan nan nan nan nan nan nan nan nan nan nan nan nan nan nan nan nan nan nan nan nan nan nan nan nan
nan nan nan nan nan nan nan nan nan nan nan nan nan nan nan nan nan nan nan nan nan nan nan nan nan nan nan nan nan nan nan nan nan nan nan nan nan nan nan nan nan nan nan nan nan nan nan nan nan nan nan nan nan nan nan nan nan nan nan nan nan nan nan nan nan nan nan nan nan nan nan nan nan nan nan nan nan nan nan nan nan nan nan nan nan nan nan nan nan nan nan nan nan nan nan nan nan nan nan nan nan nan nan
nan nan nan nan nan nan nan nan nan nan nan nan nan nan nan nan nan nan nan nan nan nan nan nan nan nan nan nan nan nan nan nan nan nan nan nan nan nan nan nan nan nan nan nan nan nan nan nan nan nan nan nan nan nan nan nan nan nan nan nan nan nan nan nan nan nan nan nan nan nan nan nan nan nan nan nan nan nan nan nan nan nan nan nan nan nan nan nan nan nan nan nan nan nan nan nan nan nan nan nan nan nan nan
nan nan nan nan nan nan nan nan nan nan nan nan nan nan nan nan nan nan nan nan nan nan nan nan nan nan nan nan nan nan nan nan nan nan nan nan nan nan nan nan nan nan nan nan nan nan nan nan nan nan nan nan nan nan nan nan nan nan nan nan nan nan nan nan nan nan nan nan nan nan nan nan nan nan nan nan nan nan nan nan nan nan nan nan nan nan nan nan nan nan nan nan nan nan nan nan nan nan nan nan nan nan nan
nan nan nan nan nan nan nan nan nan nan nan nan nan nan nan nan nan nan nan nan nan nan nan nan nan nan nan nan nan nan nan nan nan nan nan nan nan nan nan nan nan nan nan nan nan nan nan nan nan nan nan nan nan nan nan nan nan nan nan nan nan nan nan nan nan nan nan nan nan nan nan nan nan nan nan nan nan nan nan nan nan nan nan nan nan nan nan nan nan nan nan nan nan nan nan nan nan nan nan nan nan nan nan
nan nan nan nan nan nan nan nan nan nan nan nan nan nan nan nan nan nan nan nan nan nan nan nan nan nan nan nan nan nan nan nan nan nan nan nan nan nan nan nan nan nan nan nan nan nan nan nan nan nan nan nan nan nan nan nan nan nan nan nan nan nan nan nan nan nan nan nan nan nan nan nan nan nan nan nan nan nan nan nan nan nan nan nan nan nan nan nan nan nan nan nan nan nan nan nan nan nan nan nan nan nan nan
nan nan nan nan nan nan nan nan nan nan nan nan nan nan nan nan nan nan nan nan nan nan nan nan nan nan nan nan nan nan nan nan nan nan nan nan nan nan nan nan nan nan nan nan nan nan nan nan nan nan nan nan nan nan nan nan nan nan nan nan nan nan nan nan nan nan nan nan nan nan nan nan nan nan nan nan nan nan nan nan nan nan nan nan nan nan nan nan nan nan nan nan nan nan nan nan nan nan nan nan nan nan nan
nan nan nan nan nan nan nan nan nan nan nan nan nan nan nan nan nan nan nan nan nan nan nan nan nan nan nan nan nan nan nan nan nan nan nan nan nan nan nan nan nan nan nan nan nan nan nan nan nan nan nan nan nan nan nan nan nan nan nan nan nan nan nan nan nan nan nan nan nan nan nan nan nan nan nan nan nan nan nan nan nan nan nan nan nan nan nan nan nan nan nan nan nan nan nan nan nan nan nan nan nan nan nan
nan nan nan nan nan nan nan nan nan nan nan nan nan nan nan nan nan nan nan nan nan nan nan nan nan nan nan nan nan nan nan nan nan nan nan nan nan nan nan nan nan nan nan nan nan nan nan nan nan nan nan nan nan nan nan nan nan nan nan nan nan nan nan nan nan nan nan nan nan nan nan nan nan nan nan nan nan nan nan nan nan nan nan nan nan nan nan nan nan nan nan nan nan nan nan nan nan nan nan nan nan nan nan
nan nan nan nan nan nan nan nan nan nan nan nan nan nan nan nan nan nan nan nan nan nan nan nan nan nan nan nan nan nan nan nan nan nan nan nan nan nan nan nan nan nan nan nan nan nan nan nan nan nan nan nan nan nan nan nan nan nan nan nan nan nan nan nan nan nan nan nan nan nan nan nan nan nan nan nan nan nan nan nan nan nan nan nan nan nan nan nan nan nan nan nan nan nan nan nan nan nan nan nan nan nan nan
nan nan nan nan nan nan nan nan nan nan nan nan nan nan nan nan nan nan nan nan nan nan nan nan nan nan nan nan nan nan nan nan nan nan nan nan nan nan nan nan nan nan nan nan nan nan nan nan nan nan nan nan nan nan nan nan nan nan nan nan nan nan nan nan nan nan nan nan nan nan nan nan nan nan nan nan nan nan nan nan nan nan nan nan nan nan nan nan nan nan nan nan nan nan nan nan nan nan nan 0 0 0 1
nan nan nan nan nan nan nan nan nan nan nan nan nan nan nan nan nan nan nan nan nan nan nan nan nan nan nan nan nan nan nan nan nan nan nan nan nan nan nan nan nan nan nan nan nan nan nan nan nan nan nan nan nan nan nan nan nan nan nan nan nan nan nan nan nan nan nan nan nan nan nan nan nan nan nan nan nan nan nan nan nan nan nan nan nan nan nan nan nan nan nan nan nan nan nan nan nan nan nan 0 0 1 3
nan nan nan nan nan nan nan nan nan nan nan nan nan nan nan nan nan nan nan nan nan nan nan nan nan nan nan nan nan nan nan nan nan nan nan nan nan nan nan nan nan nan nan nan nan nan nan nan nan nan nan nan nan nan nan nan nan nan nan nan nan nan nan nan nan nan nan nan nan nan nan nan nan nan nan nan nan nan nan nan nan nan nan nan nan nan nan nan nan nan nan nan nan nan nan nan nan nan nan 1 1 3 6